Regional Weather Roundup
Issued by NWS

Home | Current Version | Previous Version | Text Only | Print | Product List | Glossary On
Versions: 1 2 3 4 5 6 7 8 9 10 11 12 13 14 15 16 17 18 19 20 21 22 23 24 25 26 27 28 29 30 31 32 33 34 35 36 37 38 39 40 41 42 43 44 45 46 47 48 49 50
000
ASUS43 KFSD 161010
RWRSD

WEATHER ROUNDUP FOR SOUTH DAKOTA
NATIONAL WEATHER SERVICE SIOUX FALLS SD
500 AM CDT WED AUG 16 2017

NOTE: "FAIR" INDICATES FEW OR NO CLOUDS BELOW 12,000 FEET WITH NO
SIGNIFICANT WEATHER AND/OR OBSTRUCTIONS TO VISIBILITY.


SDZ001>005-009-010-012>017-161100-
NORTHWEST AND NORTH CENTRAL SOUTH DAKOTA

CITY           SKY/WX    TMP DP  RH WIND       PRES   REMARKS
BUFFALO          N/A     56  54  93 NW8       29.91R
FAITH            N/A     60  60 100 N10       29.92S
MOBRIDGE       CLOUDY    64  62  93 NW8       29.85R
$$

SDZ012>016-024>037-041>051-057-063-072>074-161100-
SOUTHWEST AND SOUTH CENTRAL SOUTH DAKOTA

CITY           SKY/WX    TMP DP  RH WIND       PRES   REMARKS
RAPID CTY ARPT CLOUDY    58  55  90 NW7       29.96S
PIERRE         CLOUDY    67  65  93 N3        29.83R
CUSTER         CLOUDY    55  45  68 NW6       30.05S
ELLSWORTH AFB  CLOUDY    61  56  84 N9        29.96R
PHILIP         CLOUDY    65  64  97 N13       29.88S
PINE RIDGE     CLOUDY    62  61  96 N7        29.94S
SPEARFISH      FAIR      55  52  88 W6        30.02R
WINNER         LGT RAIN  66  63  90 N3        29.85S
$$

SDZ004>011-016>023-039-040-161100-
NORTHEAST SOUTH DAKOTA

CITY           SKY/WX    TMP DP  RH WIND       PRES   REMARKS
ABERDEEN       CLOUDY    65  65 100 S5        29.84S
WATERTOWN      CLOUDY    64  64 100 S5        29.85F FOG
BROOKINGS      CLOUDY    64  63  94 S5        29.85F
SISSETON         N/A     64  64 100 SE7       29.86S
$$

SDZ017-020-022-023-036>040-048>070-161100-
SOUTHEAST SOUTH DAKOTA

CITY           SKY/WX    TMP DP  RH WIND       PRES   REMARKS
SIOUX FALLS    CLOUDY    66  65  96 SE6       29.86F
HURON          LGT RAIN  66  65  96 SW3       29.83F
CHAMBERLAIN    RAIN      66  66 100 CALM      29.84F
MITCHELL       LGT RAIN  67  66  97 SW5       29.83F
YANKTON        LGT RAIN  65  64  97 N8        29.82F
$$

ABBREVIATIONS USED IN REMARKS
   TC - TEMPERATURE IN CELSIUS
  WCI - WIND CHILL INDEX
   HX - HEAT INDEX
  VSB - VISIBILITY




USA.gov is the U.S. government's official web portal to all federal, state and local government web resources and services.